Preview of NWS' New Version of Forecast
This preview is not operational and should not be used for support decisions.

Regional Weather Roundup (RWR)

Issued by National Weather Service (NWS)

                            
000
ASUS42 KTBW 171816
RWRFL 
FLORIDA REGIONAL WEATHER ROUNDUP
NATIONAL WEATHER SERVICE TAMPA BAY RUSKIN FL
200 PM EDT WED APR 17 2019

NOTE: "FAIR" INDICATES FEW OR NO CLOUDS BELOW 12,000 FEET WITH NO
SIGNIFICANT WEATHER AND/OR OBSTRUCTIONS TO VISIBILITY.

FLZ001>010-012>015-112-114-115-171900-
PANHANDLE FLORIDA
  
CITY           SKY/WX    TMP DP  RH WIND       PRES   REMARKS
PENSACOLA      FAIR      75  62  64 S8        30.10F                  
PENSACOLA NAS  PTSUNNY   73  64  73 SE9       30.09F                  
MILTON NAS     PTSUNNY   78  57  48 S13       30.09F                  
CRESTVIEW        N/A    N/A N/A N/A MISG      30.11F                  
DUKE FIELD     CLOUDY    77  60  56 S13       30.10S                  
VALPARAISO     MOSUNNY   74  66  75 S8        30.09F                  
MARY ESTHER    PTSUNNY   72  65  79 S7        30.09F                  
PANAMA CITY    FAIR      78  65  63 S13G22    30.10F                  
TYNDALL AFB    FAIR      77  66  67 S18       30.09F                  
APALACHICOLA   FAIR      76  64  66 SE10      30.11F                  

STATION/POSITION SKY/WX   TEMP    WIND        PRES    WAVE   SWELL
                          AIR SEA DIR/SP/G            HT/PER HT/PER
                          (F)     (DEG/KT/KT) (MB)    (FT/S) (FT/S)
30.1N   87.6W                                 1019.2F   2/ 4   2/ 5
29.2N   88.2W                     110/ 12/ 16 1018.0
PANAMA CITY BEAC           71 71  140/ 12/ 14 1019.7F
TOWER C          NOT AVBL

$$
FLZ011-016>038-118-127-128-134-139-239-171900-
NORTH FLORIDA
  
CITY           SKY/WX    TMP DP  RH WIND       PRES   REMARKS
MARIANNA       FAIR      80  60  50 VRB3      30.08F                  
TALLAHASSEE    CLOUDY    80  61  52 S8G17     30.11F                  
PERRY          FAIR      81  57  42 CALM      30.12F                  
LIVE OAK       SUNNY     81  55  41 VRB6      30.11F                  
CROSS CITY     FAIR      82  57  42 SE3       30.11F                  
LAKE CITY      FAIR      81  55  41 CALM      30.12F                  
GAINESVILLE    PTSUNNY   84  58  40 VRB6G20   30.14F                  
PALATKA        FAIR      82  63  51 E9G16     30.13F                  
MAYPORT NAS    CLOUDY    76  64  66 E10       30.15F                  
JACKSONVILLE   PTSUNNY   78  59  51 E9        30.13F                  
JAX NAS        PTSUNNY   80  58  46 E10       30.15F                  
JAX CECIL      MOSUNNY   84  59  42 S12       30.14F                  
FERNANDINA BEA FAIR      76  59  56 E10       30.16F                  
ST AUGUSTINE   PTSUNNY   77  63  61 E9        30.16F                  
PALM COAST     PTSUNNY   79  63  57 E13G23    30.14F                  

STATION/POSITION SKY/WX   TEMP    WIND        PRES    WAVE   SWELL
                          AIR SEA DIR/SP/G            HT/PER HT/PER
                          (F)     (DEG/KT/KT) (MB)    (FT/S) (FT/S)
SHELL POINT      NOT AVBL
KEATON BEACH               72     210/  8/  9 1020.2F
CEDAR KEY                  74     230/  5/  6 1019.8F
FERNANDINA                 78 71  100/  5/ 10 1022.0F
30.7N   81.3W                 69                N/A     2/ 8
MAYPORT                    71 69   60/  9/ 11 1021.5F
31.4N   80.9W              69 69  120/  6/  6 1021.9F   2/ 8   2/ 8
ST AUGUSTINE               72 71   70/  7/  8 1021.2F

$$
FLZ040-043>046-052-053-057-058-063-144-171900-
INTERIOR CENTRAL FLORIDA
  
CITY           SKY/WX    TMP DP  RH WIND       PRES   REMARKS
OCALA          PTSUNNY   80  60  50 VRB7      30.12F                  
LEESBURG       PTSUNNY   80  59  48 E12       30.12F                  
SANFORD        PTSUNNY   81  61  50 E13       30.11F                  
ORLANDO EXEC   PTSUNNY   83  60  45 E14       30.11F                  
ORLANDO INTL   PTSUNNY   82  57  42 E15       30.11F                  
KISSIMMEE      PTSUNNY   82  60  47 E10       30.11F                  
WINTER HAVEN   PTSUNNY   82  59  45 E12       30.11F                  
LAKELAND       MOSUNNY   81  61  50 E12       30.11F                  
BARTOW         PTSUNNY   82  57  42 E10G20    30.10F                  
SEBRING        MOCLDY    81  60  49 E14       30.10F                  
OKEECHOBEE     PTSUNNY   81  59  47 E9        30.09F                  

$$
FLZ041-047-054-059-064-141-147-171900-
EAST CENTRAL FLORIDA
  
CITY           SKY/WX    TMP DP  RH WIND       PRES   REMARKS
ORMOND BEACH   MOSUNNY   79  63  57 NE12G17   30.14F                  
DAYTONA BEACH  FAIR      79  64  60 VRB7G17   30.14F                  
DELAND         FAIR      79  61  53 E12G21    30.12F                  
NEW SMYRNA BEA MOSUNNY   81  64  57 E7        30.15F                  
JFK SPACE CTR  PTSUNNY   81  64  56 SE10      30.12F                  
TITUSVILLE     PTSUNNY   82  61  47 SE10      30.13F                  
CAPE CANAVERAL FAIR      80  56  44 E10       30.11F                  
PATRICK AFB    FAIR      81  61  50 E12       30.12F                  
MELBOURNE      FAIR      81  61  50 E15G21    30.12F                  
VERO BEACH     FAIR      81  58  45 E12       30.12F                  
FT PIERCE      FAIR      81  59  47 E10G22    30.11F                  
STUART         MOSUNNY   81  57  44 E12G21    30.11F                  

STATION/POSITION SKY/WX   TEMP    WIND        PRES    WAVE   SWELL
                          AIR SEA DIR/SP/G            HT/PER HT/PER
                          (F)     (DEG/KT/KT) (MB)    (FT/S) (FT/S)
28.5N   80.2W              76     110/ 12/ 14 1020.8F   3/ 8   2/ 8
28.9N   78.5W              74 77   80/ 14/ 16 1021.1F   4/ 8   3/ 8
TRIDENT PIER               79 77   90/  8/ 13 1021.7F
28.4N   80.5W                 77                N/A     2/ 8
27.5N   80.2W                 76                N/A     2/ 6

$$
FLZ050-056-061-142-242-148-248-149-249-151-251-155-255-
160-260-171900-
WEST CENTRAL FLORIDA
  
CITY           SKY/WX    TMP DP  RH WIND       PRES   REMARKS
CRYSTAL RIVER  FAIR      84  57  39 E6        30.10F                  
INVERNESS      PTSUNNY   82  63  51 E7        30.12F                  
BROOKSVILLE    FAIR      83  57  41 E8G16     30.11F                  
CLEARWATER AIR FAIR      79  55  44 E8        30.09F                  
ST PETE CLEARW FAIR      81  57  43 E12       30.09F                  
TAMPA INTL     PTSUNNY   83  54  36 E10G17    30.09F                  
TAMPA EXEC     FAIR      82  61  47 E8        30.10F                  
PLANT CITY     FAIR      82  59  44 E12G20    30.12F                  
MACDILL AFB    DRIZZLE   82  59  44 E9        30.08F                  
PETER O KNIGHT FAIR      84  61  45 E7        30.09F                  
ST PETERSBURG  FAIR      82  62  50 E3        30.07F                  
SARASOTA       FAIR      84  57  39 NE9G17    30.06F                  
VENICE         FAIR      86  59  39 VRB3G15   30.08F                  

STATION/POSITION SKY/WX   TEMP    WIND        PRES    WAVE   SWELL
                          AIR SEA DIR/SP/G            HT/PER HT/PER
                          (F)     (DEG/KT/KT) (MB)    (FT/S) (FT/S)
27.3N   84.2W                 75                N/A     3/ 5
CLEARWATER BEACH           79 76  100/  8/ 12 1019.1F
MIDDLE TAMPA BAY           78     100/  8/ 10 1019.2F
VENICE                     77 77  240/  9/ 10 1018.2F

$$
FLZ066-069-070-075>078-162-262-165-265-171900-
SOUTHWEST FLORIDA AND KEYS
  
CITY           SKY/WX    TMP DP  RH WIND       PRES   REMARKS
PUNTA GORDA    FAIR      84  58  40 E12       30.08F                  
FT MYERS       FAIR      84  58  40 VRB7G17   30.06F                  
SOUTHWEST INTL FAIR      84  59  42 E14       30.06F                  
NAPLES         FAIR      86  63  45 NE10      30.05F                  
MARCO ISLAND   FAIR      85  60  42 E9        30.06F                  
IMMOKALEE      FAIR      84  61  45 VRB7G18   30.05F                  
MARATHON         N/A     85  63  47 E13       30.05F                  
KEY WEST NAS   FAIR      84  64  50 E16       30.05F                  
KEY WEST INTL  FAIR      82  64  54 E10       30.06F                  

STATION/POSITION SKY/WX   TEMP    WIND        PRES    WAVE   SWELL
                          AIR SEA DIR/SP/G            HT/PER HT/PER
                          (F)     (DEG/KT/KT) (MB)    (FT/S) (FT/S)
NAPLES                     82 79  110/  7/ 10 1017.9F
DRY TORTUGAS               77     100/ 15/ 19 1017.5F
SAND KEY                   77                 1017.8F
SOMBRERO KEY               76                 1017.4F

$$
FLZ067-068-071>074-168-172>174-171900-
SOUTHEAST FLORIDA 
  
CITY           SKY/WX    TMP DP  RH WIND       PRES   REMARKS
W PALM BEACH   PTSUNNY   79  59  50 E9G21     30.10F                  
BOCA RATON     MOSUNNY   84  63  48 E12       30.09F                  
FT LAUDER-EXEC FAIR      81  59  47 E16G25    30.08F                  
FT LAUDERDALE  PTSUNNY   80  59  48 E12G20    30.08F                  
POMPANO BEACH  FAIR      83  60  45 E8        30.09F                  
PEMBROKE PINES FAIR      82  58  43 E7        30.09F                  
OPA LOCKA      FAIR      81  60  48 E15       30.09F                  
MIAMI          PTSUNNY   81  61  50 E15G21    30.08F                  
WEST KENDALL   FAIR      83  63  50 NE12G20   30.07F                  
HOMESTEAD      MOSUNNY   81  63  54 E16G22    30.07F                  

STATION/POSITION SKY/WX   TEMP    WIND        PRES    WAVE   SWELL
                          AIR SEA DIR/SP/G            HT/PER HT/PER
                          (F)     (DEG/KT/KT) (MB)    (FT/S) (FT/S)
PORT EVERGLADES            77      70/  9/ 12 1019.0F
VIRGINIA KEY               77 81   50/ 11/ 15 1018.2F
LAKE WORTH                 76 79   80/ 11/ 14 1020.4F
SETTLEMENT POINT           75      70/ 13/ 14 1019.5F

$$